Location: Newark
(45.5000°N, 11.4167°E)
Time: 18:21:49
(UTC+00:00)

A-11 Canister half - Pass Details

Date: 26 August 2019
Orbit: 1513 x 1686 km, 47.2° (Epoch: 22 September)

Event Time Altitude Azimuth Distance (km) Brightness Sun altitude
Rises 22:45:00 0° 293° (WNW) 4,794 12.0 -33.8°
Reaches altitude 10° 22:48:17 10° 286° (WNW) 3,831 11.3 -33.9°
Enters shadow 22:55:09 37° 246° (WSW) 2,369 9.7 -34.1°
Maximum altitude 22:57:06 40° 222° (SW) 2,273 - -34.1°
Drops below altitude 10° 23:06:09 10° 158° (SSE) 3,924 - -34.2°
Sets 23:09:36 0° 151° (SSE) 4,920 - -34.2°
